Cotulla, TX

2:45 PM CST on November 12, 2019 (GMT -0600)
Cotulla-La Salle County

Weather History for KCOT - August, 2019

Change the Weather History Date:

Sunday, August 25, 2019

  Actual Average Record
Temperature  
Mean Temperature 92 °F -  
Max Temperature 105 °F 94 °F 105 °F (2006)
Min Temperature 78 °F 73 °F 71 °F (1997)
Cooling Degree Days 26    
Growing Degree Days 42 (Base 50)    
Moisture  
Dew Point 71 °F    
Average Humidity 58    
Maximum Humidity 91    
Minimum Humidity 26    
Precipitation  
Precipitation 0.00 in - - ()
Sea Level Pressure  
Sea Level Pressure 29.79 in    
Wind  
Wind Speed 5 mph ()    
Max Wind Speed 17 mph    
Max Gust Speed 25 mph    
Visibility 9.4 miles    
Events      
Averages and records for this station are not official NWS values.
T = Trace of Precipitation, MM = Missing Value Source: Averaged Metar Reports

Daily Weather History Graph

Daily Weather History Graph

Search for Another Location

Airport or City:

Astronomy

Aug. 25, 2019 Rise Set
Actual Time 7:11 AM CDT 8:06 PM CDT
Civil Twilight 6:47 AM CDT 8:30 PM CDT
Nautical Twilight 6:18 AM CDT 8:58 PM CDT
Astronomical Twilight 5:49 AM CDT 9:28 PM CDT
Moon 2:02 AM CDT (8/25) 4:12 PM CDT (8/25)
Length of Visible Light 13h 42m
Length of Day
12h 54m
Waning Crescent, 29% of the Moon is Illuminated
Aug 25
Waning Crescent
Aug 30
New
Sep 5
First Quarter
Sep 13
Full
Sep 21
Last Quarter

Hourly Weather History & Observations

Time (CDT) Temp. Heat Index Dew Point Humidity Pressure Visibility Wind Dir Wind Speed Gust Speed Precip Events Conditions
12:53 AM 82.9 °F 92.8 °F 78.1 °F 85% 29.85 in 8.0 mi Calm Calm - N/A   Clear
1:53 AM 82.0 °F 90.2 °F 77.0 °F 85% 29.84 in 7.0 mi SSE 4.6 mph - N/A   Clear
2:53 AM 82.0 °F 91.0 °F 78.1 °F 88% 29.81 in 7.0 mi ESE 3.5 mph - N/A   Clear
3:53 AM 81.0 °F 88.6 °F 78.1 °F 91% 29.81 in 6.0 mi ESE 5.8 mph - N/A   Clear
4:53 AM 80.1 °F 84.2 °F 73.0 °F 79% 29.82 in 10.0 mi SSE 5.8 mph - N/A   Clear
5:53 AM 79.0 °F - 72.0 °F 79% 29.83 in 10.0 mi ESE 3.5 mph - N/A   Clear
6:53 AM 78.1 °F - 72.0 °F 81% 29.84 in 10.0 mi ESE 4.6 mph - N/A   Clear
7:53 AM 78.1 °F - 72.0 °F 81% 29.85 in 10.0 mi SSE 4.6 mph - N/A   Clear
8:53 AM 82.9 °F 90.8 °F 75.9 °F 79% 29.86 in 8.0 mi SE 6.9 mph - N/A   Clear
9:53 AM 87.1 °F 95.4 °F 73.9 °F 65% 29.87 in 10.0 mi SSE 10.4 mph - N/A   Clear
10:53 AM 90.0 °F 97.9 °F 73.0 °F 57% 29.86 in 10.0 mi South 6.9 mph - N/A   Clear
11:53 AM 93.0 °F 100.7 °F 72.0 °F 50% 29.85 in 10.0 mi Variable 5.8 mph - N/A   Clear
12:53 PM 96.1 °F 102.9 °F 70.0 °F 43% 29.82 in 10.0 mi South 5.8 mph - N/A   Clear
1:53 PM 99.0 °F 105.5 °F 69.1 °F 38% 29.79 in 10.0 mi Variable 5.8 mph - N/A   Partly Cloudy
2:53 PM 102.0 °F 107.3 °F 66.9 °F 32% 29.75 in 10.0 mi SSE 6.9 mph - N/A   Clear
3:53 PM 100.9 °F 104.6 °F 64.9 °F 31% 29.73 in 10.0 mi Variable 4.6 mph - N/A   Clear
4:53 PM 105.1 °F 108.5 °F 64.0 °F 26% 29.69 in 10.0 mi North 8.1 mph - N/A   Partly Cloudy
5:53 PM 102.9 °F 105.5 °F 63.0 °F 27% 29.68 in 10.0 mi NNW 5.8 mph - N/A   Mostly Cloudy
6:53 PM 102.0 °F 103.9 °F 62.1 °F 27% 29.68 in 10.0 mi East 5.8 mph - N/A   Mostly Cloudy
7:53 PM 100.0 °F 101.8 °F 63.0 °F 29% 29.70 in 10.0 mi ESE 9.2 mph - N/A   Clear
8:53 PM 93.0 °F 100.1 °F 71.1 °F 49% 29.73 in 10.0 mi SSE 16.1 mph - N/A   Clear
9:53 PM 89.1 °F 94.1 °F 70.0 °F 53% 29.74 in 10.0 mi SSE 17.3 mph 25.3 mph N/A   Clear
10:53 PM 87.1 °F 91.3 °F 69.1 °F 55% 29.77 in 10.0 mi SSE 10.4 mph - N/A   Clear
11:53 PM 84.9 °F 88.8 °F 69.1 °F 59% 29.76 in 10.0 mi SSE 10.4 mph - N/A   Clear